Regional Weather Roundup
Issued by NWS

Home | Current Version | Previous Version | Graphics & Text | Print | Product List | Glossary On
Versions: 1 2 3 4 5 6 7 8 9 10 11 12 13 14 15 16 17 18 19 20 21 22 23 24 25 26 27 28 29 30 31 32 33 34 35 36 37 38 39 40 41 42 43 44 45 46 47 48 49 50
000
ASUS43 KDTX 200610
RWRMI
MICHIGAN HOURLY REGIONAL WEATHER ROUNDUP
NATIONAL WEATHER SERVICE DETROIT/PONTIAC MI
200 AM EDT MON OCT 20 2014

NOTE: "FAIR" INDICATES FEW OR NO CLOUDS BELOW 12,000 FEET WITH NO
SIGNIFICANT WEATHER AND/OR OBSTRUCTION TO VISIBILITY.

MIZ047>049-052>055-059>063-066>070-074>076-081>083-200700-
SOUTHEAST LOWER MICHIGAN

CITY           SKY/WX    TMP DP  RH WIND       PRES   REMARKS
ADRIAN         CLOUDY    47  39  74 SW8       29.97F
6HR MIN TEMP:  45; 6HR MAX TEMP:  48;

ALMA           CLOUDY    48  40  73 S7        29.87F
ANN ARBOR      CLOUDY    46  36  68 S5        29.95F
CARO           CLOUDY    45  41  86 S6        29.89F
DETROIT CITY   CLOUDY    51  35  54 SW8       29.97F
6HR MIN TEMP:  50; 6HR MAX TEMP:  51;

DETROIT        CLOUDY    47  36  65 S6        29.97F
6HR MIN TEMP:  46; 6HR MAX TEMP:  48;

FLINT          CLOUDY    50  38  63 S8        29.92F
6HR MIN TEMP:  49; 6HR MAX TEMP:  50; 6HR PCP: TRACE;

GROSSE ILE     CLOUDY    50  36  57 S6        29.96F
HILLSDALE      CLOUDY    49  40  71 SW7       29.94F
6HR MIN TEMP:  47; 6HR MAX TEMP:  49;

HOWELL         CLOUDY    47  38  70 S5        29.92F

CITY           SKY/WX    TMP DP  RH WIND       PRES   REMARKS
JACKSON        CLOUDY    49  39  68 SW10      29.93F
6HR MIN TEMP:  47; 6HR MAX TEMP:  49;

LAMBERTVILLE   CLOUDY    50  36  57 SW7       29.98S
LANSING        LGT RAIN  49  40  71 SW10      29.90F
6HR MIN TEMP:  46; 6HR MAX TEMP:  49; 6HR PCP: TRACE;

LAPEER         CLOUDY    47  37  67 SW6       29.92F
MASON          CLOUDY    48  40  73 SW5       29.91F
MONROE         MOCLDY    48  37  66 SW5       29.96F
MT. CLEMENS    CLOUDY    49  34  56 SW8       29.94F
6HR MIN TEMP:  45; 6HR MAX TEMP:  49;

PONTIAC        CLOUDY    47  36  65 S7        29.93F
6HR MIN TEMP:  46; 6HR MAX TEMP:  48;

PORT HOPE        N/A     47  38  71 VRB5      29.87F
6HR MIN TEMP:  45; 6HR MAX TEMP:  47;

PORT HURON     DRIZZLE   48  37  66 S6        29.95F
TRI CITIES     LGT RAIN  49  42  77 S8        29.88F
6HR MIN TEMP:  48; 6HR MAX TEMP:  50; 6HR PCP:  0.01;

TROY           CLOUDY    48  33  55 S6        29.97F
SAGINAW HB     CLOUDY    46  41  81 S8        29.88F
$$
MIZ043>046-050>051-056>058-064>065-071>073-077>080-200700-
SOUTHWEST LOWER MICHIGAN

CITY           SKY/WX    TMP DP  RH WIND       PRES   REMARKS
BATTLE CREEK   CLOUDY    49  40  71 SW14      29.92F
6HR MIN TEMP:  47; 6HR MAX TEMP:  49;

BENTON HARBOR  CLOUDY    48  44  86 S8        29.91F
6HR MIN TEMP:  47; 6HR MAX TEMP:  50; 6HR PCP:  0.01;

BIG RAPIDS     LGT RAIN  47  47 100 S5        29.83F
6HR MIN TEMP:  46; 6HR MAX TEMP:  47; 6HR PCP:  0.01;

COLDWATER      MOCLDY    49  42  75 SW8       29.94F
6HR MIN TEMP:  47; 6HR MAX TEMP:  50;

FREMONT        RAIN      50  48  94 S7        29.84F
6HR MIN TEMP:  45; 6HR MAX TEMP:  51;

HOLLAND        RAIN      54  49  83 SW12      29.88F
6HR MIN TEMP:  47; 6HR MAX TEMP:  55; 6HR PCP:  0.03;

GRAND RAPIDS   LGT RAIN  49  43  80 SW10      29.88F
6HR MIN TEMP:  45; 6HR MAX TEMP:  49; 6HR PCP:  0.04;

IONIA          LGT RAIN  49  43  80 SW12      29.87F
KALAMAZOO      CLOUDY    49  41  74 SW9       29.92F
6HR MIN TEMP:  46; 6HR MAX TEMP:  49;

LUDINGTON      CLOUDY    52  48  88 S16G26    29.80F
6HR MIN TEMP:  49; 6HR MAX TEMP:  52; 6HR PCP:  0.21;

MARSHALL       CLOUDY    47  40  75 SW7       29.92F
MOUNT PLEASANT CLOUDY    47  42  84 S6        29.85F
6HR MIN TEMP:  47; 6HR MAX TEMP:  48; 6HR PCP:  0.01;

MUSKEGON       CLOUDY    54  48  80 S13       29.85F
6HR MIN TEMP:  52; 6HR MAX TEMP:  55; 6HR PCP:  0.03;

SOUTH HAVEN    CLOUDY    50  46  87 S8        29.90F
$$
MIZ016>042-200700-
NORTHERN LOWER MICHIGAN

CITY           SKY/WX    TMP DP  RH WIND       PRES   REMARKS
ALPENA         CLOUDY    46  41  82 S8        29.81F
6HR MIN TEMP:  45; 6HR MAX TEMP:  47; 6HR PCP: TRACE;

BEAVER ISLAND  CLOUDY    52  48  86 SW14      29.73F
6HR MIN TEMP:  47; 6HR MAX TEMP:  52;

BELLAIRE       CLOUDY    49  45  85 S5        29.78F
CADILLAC       CLOUDY    47  45  95 SW13      29.80F
CHARLEVOIX     CLOUDY    50  47  90 SW8       29.78F
6HR MIN TEMP:  47; 6HR MAX TEMP:  50;

FRANKFORT      CLOUDY    52  46  79 S7G18     29.78F
GAYLORD        CLOUDY    45  42  89 SW9       29.78F
6HR MIN TEMP:  43; 6HR MAX TEMP:  46; 6HR PCP:  0.01;

GRAYLING       CLOUDY    47  45  95 S5        29.80F
HARBOR SPRINGS CLOUDY    49  44  81 CALM      29.76F
HOUGHTON LAKE  CLOUDY    47  42  83 SW8       29.82F
6HR MIN TEMP:  45; 6HR MAX TEMP:  47; 6HR PCP:  0.01;

MANISTEE       CLOUDY    52  45  76 S6        29.80F
OSCODA         CLOUDY    46  43  89 S7        29.84F
PELLSTON       CLOUDY    50  44  80 SW8       29.76F
6HR MIN TEMP:  46; 6HR MAX TEMP:  50; 6HR PCP:  0.01;

TRAVERSE CITY  CLOUDY    51  45  79 SW7G17    29.76F
6HR MIN TEMP:  47; 6HR MAX TEMP:  51; 6HR PCP:  0.03;

$$
MIZ007>008-015-200700-
EASTERN UPPER MICHIGAN

CITY           SKY/WX    TMP DP  RH WIND       PRES   REMARKS
KINROSS        CLOUDY    45  45 100 S8        29.75F
6HR MIN TEMP:  43; 6HR MAX TEMP:  45; 6HR PCP:  0.02;

MACKINAC ISLAN CLOUDY    48  43  82 S6        29.75F
6HR MIN TEMP:  47; 6HR MAX TEMP:  49;

NEWBERRY       CLOUDY    47  46  97 SW7       29.71F
S. S. MARIE    CLOUDY    44  42  93 SE5       29.74F FOG
6HR MIN TEMP:  43; 6HR MAX TEMP:  44; 6HR PCP:  0.07;

MUNISING         N/A     50  45  83 CALM      29.72S
6HR MIN TEMP:  49; 6HR MAX TEMP:  51;

$$
MIZ004>006-011>014-085-200700-
CENTRAL UPPER MICHIGAN

CITY           SKY/WX    TMP DP  RH WIND       PRES   REMARKS
MANISTIQUE     CLOUDY    49  46  90 CALM      29.72F
ESCANABA       CLOUDY    48  43  81 W3        29.72F
6HR MIN TEMP:  48; 6HR MAX TEMP:  52; 6HR PCP:  0.01;

MENOMINEE      CLOUDY    48  43  81 SW6       29.73F
6HR MIN TEMP:  48; 6HR MAX TEMP:  52;

SAWYER-GWINN   CLOUDY    44  42  95 CALM      29.72S
$$
MIZ001>003-009>011-084-200700-
WESTERN UPPER MICHIGAN

CITY           SKY/WX    TMP DP  RH WIND       PRES   REMARKS
IRON MOUNTAIN  CLOUDY    45  43  93 CALM      29.72S
6HR MIN TEMP:  43; 6HR MAX TEMP:  46;

HOUGHTON       CLOUDY    46  40  79 NW7       29.73R
6HR MIN TEMP:  43; 6HR MAX TEMP:  47;

COPPER HARBOR    N/A     47  42  83 N12       29.73R
6HR MIN TEMP:  46; 6HR MAX TEMP:  48;

IRONWOOD       CLOUDY    50  45  81 NW9       29.76R
6HR MIN TEMP:  46; 6HR MAX TEMP:  52;

$$

ABBREVIATIONS USED IN REMARKS
   TC - TEMPERATURE IN CELSIUS
  WCI - WIND CHILL INDEX
   HX - HEAT INDEX
  VSB - VISIBILITY



USA.gov is the U.S. government's official web portal to all federal, state and local government web resources and services.